Snowfall_Accumulation
0.0 0.0 0.0 0.0 0.0 0.0 0.0 0.0 0.0 0.0 0.0 0.0 0.0 0.0 0.0 0.0 0.0 0.0 0.0 0.0 0.0 0.0 0.0 0.0 0.0 0.0 0.0 0.0 0.0 0.0 0.0 0.0 0.0 0.0 0.0 0.0 0.0 0.0 0.0 0.0 0.0 0.0 0.0 0.0
0.0 0.0 0.0 0.0 0.0 0.0 0.0 0.0 0.0 0.0 0.0 0.0 0.0 0.0 0.0 0.0 0.0 0.0 0.0 0.0 0.0 0.0 0.0 0.0 0.0 0.0 0.0 0.0 0.0 0.0 0.0 0.0 0.1 0.0 0.0 0.0 0.0 0.0 0.0 0.0 0.0 0.0 0.0 0.0
0.0 0.0 0.0 0.0 0.0 0.0 0.0 0.0 3.7 0.0 0.0 0.0 2.9 1.7 0.0 0.0 0.0 0.0 0.0 0.0 0.0 0.0 0.0 0.0 0.0 0.0 0.0 0.0 0.0 0.0 0.0 0.0 0.0 0.0 0.0 0.0 0.0 0.0 0.0 0.0 0.0 0.0 0.0 0.0
0.0 0.0 0.0 0.0 0.0 0.0 0.0 0.0 2.7 0.0 7.0 12.0 12.6 11.8 11.6 8.4 8.3 5.3 2.6 3.7 4.4 3.5 2.9 0.5 0.0 0.0 0.0 0.0 0.0 0.0 0.0 0.5 0.0 0.0 0.0 0.0 0.0 0.0 0.0 0.0 0.0 0.0 0.0 0.0
0.0 0.0 0.0 0.0 0.0 0.0 0.0 0.0 0.0 0.0 3.6 6.5 9.3 11.0 11.8 9.2 9.4 10.2 9.1 10.4 10.2 10.3 10.1 9.2 8.1 6.9 5.9 3.6 0.5 1.5 2.2 5.1 3.9 1.7 0.0 0.0 0.5 0.0 0.0 0.0 0.0 0.0 0.0 0.0
0.0 0.0 0.0 0.0 0.0 0.0 0.0 0.0 0.0 0.0 1.7 1.6 3.7 6.0 6.6 6.8 5.8 2.6 3.7 6.8 7.5 6.5 6.8 4.4 1.7 1.0 1.3 4.7 5.2 5.5 7.6 9.0 9.5 7.1 1.6 2.6 2.6 0.0 0.0 0.0 0.4 0.6 3.2 3.6
0.0 0.0 0.0 0.0 0.0 0.0 0.0 0.0 0.0 2.0 1.1 0.2 0.2 0.8 1.5 3.1 4.5 6.0 3.0 3.7 5.4 0.0 0.0 0.0 0.0 0.0 0.0 0.0 0.2 0.1 4.2 5.3 9.1 7.3 3.3 6.0 0.2 0.1 0.0 0.2 0.7 0.6 0.4 0.0
0.0 0.0 0.0 0.0 0.0 0.0 0.0 0.0 0.0 2.5 2.2 0.3 0.2 0.1 0.3 0.4 0.9 4.1 4.0 1.6 0.0 0.0 0.0 3.1 2.1 0.9 1.0 0.4 0.0 0.0 0.2 5.3 9.8 7.9 5.3 0.6 0.4 0.0 0.0 0.5 1.0 0.2 0.0 0.0
0.0 0.0 0.0 0.0 0.0 0.0 0.0 0.0 0.0 1.4 2.5 0.4 0.0 0.0 0.0 0.1 0.4 1.1 0.8 0.0 0.0 0.0 3.3 4.5 3.5 1.4 0.3 0.0 0.0 0.0 0.3 2.6 11.0 11.2 9.2 4.3 0.0 0.0 0.0 0.1 1.1 0.0 0.0 0.0
0.0 0.0 0.0 0.0 0.0 0.0 0.0 0.0 0.0 0.0 3.8 0.3 0.0 0.1 0.1 0.0 0.2 1.0 0.3 0.0 0.0 0.0 3.8 4.6 2.9 1.8 0.4 1.0 0.0 0.0 0.7 2.4 5.9 5.7 8.5 5.5 1.4 0.2 0.0 0.5 0.6 0.1 0.0 0.0
0.0 0.0 0.0 0.0 0.0 0.0 0.0 0.0 0.0 0.0 4.6 0.8 0.0 0.0 0.0 0.0 0.1 0.1 0.3 0.6 0.2 1.9 3.6 2.4 1.5 2.2 1.6 1.2 0.3 0.3 0.8 0.9 0.5 1.7 4.0 3.0 0.7 0.2 0.8 0.2 0.0 0.0 0.0 0.0
0.0 0.0 0.0 0.0 0.0 0.0 0.0 0.0 0.0 0.0 3.5 1.7 0.0 0.0 0.0 0.0 0.0 0.2 0.4 0.3 0.2 0.0 2.2 2.2 2.1 1.7 0.9 0.5 1.4 0.0 0.6 0.1 0.6 0.2 0.8 0.0 0.3 0.3 0.0 0.0 0.0 0.0 0.0 0.0
0.0 0.0 0.0 0.0 0.0 0.0 0.0 0.0 0.0 0.0 2.8 1.0 0.2 0.0 0.0 0.0 0.0 0.0 0.8 0.1 0.0 0.0 0.0 1.4 1.9 2.7 2.1 2.0 1.1 0.8 0.4 0.1 0.4 1.3 0.4 0.1 0.0 0.0 0.0 0.0 0.0 0.0 0.0 0.0
0.0 0.0 0.0 0.0 0.0 0.0 0.0 0.0 0.0 0.0 1.4 1.2 0.0 0.0 0.0 0.0 0.0 0.0 0.0 0.0 0.0 0.0 0.3 3.2 2.8 1.8 0.0 0.5 0.3 0.6 0.1 0.0 0.1 0.2 0.0 0.0 0.0 0.0 0.0 0.0 0.0 0.0 0.0 0.0
0.0 0.0 0.0 0.0 0.0 0.0 0.0 0.0 0.0 0.0 0.0 1.6 0.4 0.0 0.0 0.0 0.0 0.0 0.0 0.0 0.3 1.6 3.0 3.8 2.3 0.0 0.7 0.7 0.5 0.8 0.0 0.0 0.0 0.0 0.0 0.0 0.0 0.0 0.0 0.0 0.0 0.0 0.0 0.0
0.0 0.0 0.0 0.0 0.0 0.0 0.0 5.8 0.0 0.0 0.0 1.2 0.4 0.0 0.0 0.0 0.0 0.0 0.0 0.1 1.4 3.2 4.6 3.9 1.8 0.0 1.6 3.4 1.3 0.0 0.0 0.0 0.0 0.1 0.0 0.2 0.1 0.0 0.0 0.0 0.0 0.0 0.0 0.0
0.0 0.0 0.0 0.0 0.0 0.0 2.3 0.9 0.0 0.0 0.0 4.4 2.2 0.0 0.0 0.0 0.0 0.0 0.1 0.2 1.0 2.0 3.5 2.8 0.8 1.0 3.7 5.4 3.1 0.0 0.0 0.0 0.0 0.1 0.0 0.1 0.0 0.0 0.0 0.4 0.2 0.0 0.0 0.0
0.0 0.0 0.0 0.0 0.0 0.0 3.1 0.0 0.0 0.0 3.2 2.0 1.1 0.0 0.0 0.0 0.1 0.2 0.3 0.6 1.2 1.1 1.4 0.7 0.2 0.7 1.9 2.6 0.0 0.0 0.0 0.0 0.0 0.0 0.0 0.2 0.1 0.0 0.0 0.0 0.2 0.0 0.0 0.0
0.0 0.0 0.0 0.0 0.0 1.5 0.0 0.0 0.0 0.0 1.5 1.1 0.1 0.4 0.0 0.0 0.1 0.2 0.8 1.3 2.0 0.5 0.6 0.0 0.5 0.5 0.8 0.0 0.0 0.0 0.0 0.0 0.0 0.0 0.0 0.0 0.0 0.0 0.0 0.0 0.0 0.0 0.0 0.0
0.0 0.0 0.5 1.1 0.0 0.0 0.0 0.1 5.1 7.3 4.1 1.1 0.1 0.0 0.1 0.0 0.0 0.1 0.0 0.6 0.5 0.9 0.2 0.0 1.3 0.0 0.0 0.0 0.0 0.0 0.0 0.0 0.0 0.0 0.0 0.0 0.0 0.0 0.0 0.0 0.0 0.0 0.0 0.0
0.0 2.6 1.0 0.1 0.0 0.2 1.4 2.1 2.0 1.4 1.8 0.2 0.1 0.0 0.0 0.0 0.0 0.1 0.2 0.5 0.2 1.0 0.0 0.1 0.2 0.0 0.0 0.0 0.0 0.0 0.0 0.0 0.0 0.0 0.0 0.0 0.0 0.0 0.0 0.0 0.0 0.0 0.0 0.0
0.0 0.0 0.0 1.0 1.7 1.6 1.8 1.3 1.1 0.1 0.0 0.1 0.2 0.0 0.0 0.1 0.0 0.2 1.2 1.1 1.2 0.6 0.0 0.8 0.0 0.0 0.0 0.0 0.0 0.0 0.0 0.0 0.0 0.0 0.0 0.0 0.0 0.0 0.0 0.0 0.0 0.0 0.0 0.0
0.0 0.6 0.9 1.1 1.6 1.4 1.0 0.1 0.2 0.0 0.0 0.2 0.3 0.2 0.0 0.3 0.4 2.8 2.4 2.1 1.2 0.0 0.7 0.0 0.0 0.0 0.0 0.0 0.0 0.0 0.0 0.0 0.0 0.0 0.0 0.0 0.0 0.0 0.0 0.0 0.0 0.0 0.0 0.0
4.1 2.0 2.3 0.5 0.6 0.2 0.2 0.0 0.0 0.1 0.1 0.0 0.1 0.2 0.7 1.1 2.6 3.6 3.5 2.5 1.5 1.5 0.5 0.0 0.1 0.0 0.0 0.0 0.0 0.0 0.0 0.0 0.0 0.0 0.0 0.0 0.0 0.0 0.0 0.0 0.0 0.0 0.0 0.0
3.2 1.4 1.0 1.4 0.4 0.0 0.0 0.1 0.4 0.3 0.5 1.1 1.2 1.4 1.9 1.9 3.2 2.0 2.2 2.2 1.2 0.6 0.0 0.1 0.1 0.3 0.2 0.1 0.0 0.0 0.0 0.0 0.0 0.0 0.0 0.0 0.0 0.0 0.0 0.0 0.0 0.0 0.0 0.0
1.9 1.7 0.8 0.2 0.4 0.5 0.7 1.0 1.2 1.4 1.7 2.3 2.5 2.4 2.1 1.2 1.8 2.4 1.7 1.3 0.3 0.2 0.2 0.6 0.6 0.5 0.1 0.0 0.0 0.0 0.0 0.0 0.0 0.0 0.0 0.0 0.0 0.0 0.0 0.0 0.0 0.0 0.0 0.0
0.6 0.6 0.1 0.6 0.8 1.0 1.1 1.0 0.9 0.9 1.5 1.7 1.8 2.0 0.9 1.0 1.4 1.1 0.5 0.6 0.5 0.6 0.6 0.2 0.1 0.0 0.0 0.0 0.0 0.0 0.0 0.0 0.0 0.0 0.0 0.0 0.0 0.0 0.0 0.0 0.0 0.0 0.0 0.0